Wind_Speed
14 15 15 15 16 14 12 13 12 12 12 12 11 11 11 10 9 9 8 8 8 8 8 7 7 7 8 9 9 10 10 10 10 10 9 9 10 10 9 9 9 9 8 8 8 8 6 5 5
14 14 15 16 16 12 12 13 12 12 12 12 12 11 11 11 10 9 9 8 9 8 8 7 7 8 9 9 9 10 10 10 10 10 10 10 10 10 9 9 9 8 8 8 8 8 7 6 5
14 14 15 15 13 12 12 12 12 12 12 12 12 11 11 11 10 9 9 8 8 8 9 8 8 9 10 10 10 9 9 10 10 10 10 10 10 9 8 8 8 8 7 7 8 7 6 5 5
14 14 15 14 13 13 12 12 12 12 12 12 12 12 12 11 11 10 9 9 9 8 9 9 9 10 10 10 9 9 10 9 10 10 10 10 10 9 9 8 8 7 7 7 7 6 6 5 4
14 15 15 13 14 13 13 13 12 13 13 12 12 12 12 12 11 11 10 10 9 9 8 9 9 9 9 10 9 10 9 9 9 10 10 10 10 9 9 9 8 7 6 5 5 5 5 5 4
14 16 14 13 14 13 13 13 13 14 14 13 13 13 13 13 12 11 10 9 10 10 9 9 9 9 9 9 9 10 10 9 9 10 9 10 9 9 9 8 7 7 6 5 4 4 4 4 3
15 15 14 14 14 14 14 14 14 14 14 14 14 13 13 13 12 11 10 10 10 10 9 9 9 9 9 9 10 10 10 10 9 9 9 8 8 9 8 8 7 7 6 5 4 4 4 3 3
13 14 13 14 14 15 15 15 15 15 14 14 14 14 14 13 13 11 11 10 10 10 10 10 10 10 10 9 10 10 10 10 10 9 8 8 8 8 7 7 6 6 6 5 4 4 3 4 4
13 15 12 14 14 15 16 16 15 15 15 14 14 14 14 14 14 13 12 11 11 11 11 11 11 11 11 10 11 11 11 10 10 9 9 8 8 7 6 5 5 5 4 4 3 3 2 2 4
14 13 13 14 15 15 15 16 15 15 15 14 14 14 14 14 14 14 13 12 12 11 11 12 11 11 11 11 11 11 11 10 9 9 9 8 8 7 5 4 4 4 4 2 1 1 1 1 2
13 13 13 14 14 14 14 15 15 15 15 14 13 13 13 14 14 14 13 12 12 12 12 12 12 12 12 11 11 11 10 10 9 8 8 7 7 6 6 5 4 3 3 2 1 1 1 2 3
12 12 12 13 14 13 13 14 15 14 14 14 13 13 13 13 13 13 12 11 12 12 11 11 11 11 11 11 11 11 10 10 9 8 8 6 6 6 5 5 4 3 2 1 2 2 2 2 2
10 11 12 12 12 13 13 13 14 14 13 13 13 12 13 13 13 12 12 12 12 12 11 11 11 11 11 11 11 10 10 9 7 6 6 6 6 5 5 4 3 2 2 2 2 3 3 2 2
9 10 10 10 11 12 12 12 13 13 13 13 13 12 12 12 12 12 12 11 12 12 11 11 10 10 10 10 10 9 9 8 8 6 7 6 6 6 5 4 4 3 3 2 2 2 2 2 2
7 8 9 9 10 10 11 12 12 12 13 13 13 12 12 12 12 12 12 11 11 11 11 10 10 9 9 9 8 8 8 8 7 6 6 6 5 5 5 4 3 3 2 2 1 1 2 2 2
5 6 7 7 8 9 11 11 11 11 12 12 12 11 10 11 11 11 11 11 10 10 10 10 9 9 8 8 8 7 7 6 6 5 5 5 5 5 5 4 4 3 3 3 2 2 2 2 2
4 5 5 5 7 8 9 9 9 10 10 11 11 10 9 9 10 10 10 9 9 9 9 8 8 8 8 7 6 6 6 6 5 5 5 5 5 6 5 5 4 4 4 4 3 2 2 3 3
4 3 3 3 4 6 7 7 7 8 9 9 10 10 9 8 8 9 9 9 8 8 8 8 7 7 7 7 6 6 6 5 5 6 6 5 6 6 6 5 5 5 4 4 4 3 3 3 3
7 5 3 2 2 3 5 6 6 7 7 8 8 9 8 8 7 6 7 7 7 7 7 7 7 7 6 6 6 6 6 5 5 5 6 6 6 6 6 6 5 4 4 4 4 4 4 4 3
8 6 4 2 0 1 3 4 5 6 6 6 7 7 7 7 6 5 5 5 6 6 6 6 6 6 6 6 5 5 5 5 5 5 5 5 4 5 5 5 4 4 4 4 4 4 5 5 4
9 8 6 4 2 2 0 2 3 4 4 5 6 7 7 7 6 5 5 4 4 5 5 6 6 6 6 6 5 5 6 6 5 4 4 4 4 4 3 4 4 4 4 4 4 4 5 5 5
10 10 8 6 4 3 2 1 2 2 2 3 5 6 6 6 6 5 4 4 4 4 5 5 5 5 5 5 5 5 5 4 4 4 3 3 3 3 3 3 3 3 4 4 5 5 5 6 6
13 11 9 7 6 5 4 2 3 2 2 3 3 4 5 5 5 4 3 2 2 2 3 3 4 4 4 4 4 4 4 3 3 2 2 3 3 3 3 3 3 3 4 5 5 5 5 6 6
14 12 10 8 7 6 6 4 3 4 3 3 3 4 4 5 4 4 4 3 2 1 1 1 2 2 3 2 2 2 3 2 2 2 2 2 2 2 3 3 3 3 4 4 5 6 6 7 7
16 13 10 9 9 8 8 6 5 5 4 4 4 4 5 5 4 4 4 4 3 2 1 1 0 0 0 1 1 1 1 1 1 1 1 2 2 2 2 2 3 3 4 4 5 6 6 7 7
18 16 13 11 10 10 10 8 7 5 5 5 5 5 6 5 4 4 4 4 3 3 2 2 3 3 2 2 1 1 1 1 1 1 1 1 1 2 2 2 3 3 4 5 6 6 7 8 8
21 19 16 14 12 11 12 10 8 7 7 7 7 6 6 6 5 5 4 4 4 3 3 4 4 4 3 3 3 3 3 3 3 3 2 2 2 2 2 3 4 4 5 5 6 7 7 8 8
23 21 19 16 15 14 13 12 10 9 9 9 8 8 7 7 7 6 5 5 4 4 4 4 4 4 5 5 4 4 4 4 4 3 3 3 3 3 3 3 4 5 5 6 7 8 8 8 9
25 24 22 20 19 16 14 14 13 11 11 10 10 10 9 9 8 8 6 6 6 5 5 5 5 5 5 5 5 5 5 5 4 4 4 4 4 4 4 4 5 6 6 7 8 8 9 9 10
26 26 25 23 22 20 18 17 16 13 12 12 12 12 10 10 9 9 8 8 7 7 7 7 7 6 6 6 6 6 6 5 5 5 5 5 5 6 6 6 7 8 8 8 9 9 10 11 11
Wind_Direction
78 78 77 77 74 72 75 80 83 82 80 78 79 82 85 91 94 96 95 99 106 112 116 123 127 140 150 151 147 142 142 143 139 138 137 139 140 139 139 142 143 143 144 148 152 152 151 148 143
77 76 76 76 77 78 77 81 82 81 77 76 77 80 84 87 92 93 92 98 106 111 115 121 120 132 145 148 146 144 140 141 141 139 137 138 141 141 140 147 149 149 149 151 154 154 157 153 149
74 76 76 75 80 81 78 79 80 79 76 75 78 81 82 83 87 90 94 100 108 111 114 115 118 128 141 146 148 146 143 143 145 143 141 141 140 147 147 150 150 151 153 155 158 159 163 161 160
73 77 74 73 75 78 78 78 79 77 76 76 77 79 81 82 87 89 95 97 100 105 113 115 121 125 136 142 146 147 144 144 147 146 145 144 145 145 144 147 151 151 150 156 162 167 174 170 168
75 75 73 73 72 75 76 79 76 77 78 75 76 78 80 83 87 89 95 99 100 104 111 114 123 128 132 140 142 144 143 142 146 145 144 144 143 140 138 143 148 152 151 157 164 168 171 171 177
76 75 77 75 71 72 74 78 79 79 76 74 76 78 81 84 88 90 92 98 103 106 108 112 119 125 128 133 140 142 142 143 146 146 144 142 142 140 138 141 147 153 157 160 162 163 171 176 187
79 79 77 75 74 74 76 80 81 79 74 72 77 77 78 80 86 89 89 93 99 104 107 108 115 119 122 125 132 136 138 139 141 143 143 143 142 138 139 140 147 151 156 159 167 172 184 194 207
78 78 76 77 76 74 76 77 78 77 74 73 77 79 78 79 81 85 88 89 97 103 107 106 107 112 118 123 129 133 135 137 139 139 143 142 139 138 138 139 147 151 156 163 182 193 204 216 222
79 79 81 83 77 75 75 74 74 74 73 73 74 77 79 80 80 83 85 86 92 100 104 106 107 107 111 117 125 132 134 135 139 141 137 133 133 137 140 135 139 147 150 155 179 198 217 239 240
81 83 84 83 80 76 74 71 70 69 69 71 72 74 79 82 81 82 86 87 91 97 101 104 106 107 109 111 119 126 131 133 138 138 137 133 133 134 131 131 135 143 147 148 159 174 187 226 223
83 83 86 84 79 75 72 69 68 67 67 69 70 72 78 81 82 82 86 88 92 96 98 102 104 106 108 106 110 120 127 129 131 130 135 134 135 131 127 126 132 136 146 145 126 102 131 165 188
82 81 82 81 78 74 72 70 67 66 65 66 67 72 75 80 82 83 84 89 94 98 99 101 102 104 106 107 108 114 124 126 123 123 126 130 135 131 128 125 119 122 132 110 85 80 103 127 151
83 80 78 77 74 71 69 67 63 61 63 65 66 68 73 77 81 83 81 87 95 97 98 99 100 100 104 107 105 106 111 116 115 116 119 120 126 129 131 128 125 128 125 115 91 78 83 103 117
87 82 77 74 69 67 66 65 62 61 61 63 67 67 68 72 77 80 81 86 93 95 96 97 98 97 100 104 104 103 105 106 107 110 117 114 117 122 125 116 109 107 112 114 97 92 91 74 63
94 86 80 76 70 66 65 61 59 58 58 60 65 66 65 67 76 80 83 84 89 91 93 94 95 94 95 98 102 103 104 105 103 103 108 113 120 117 115 112 109 99 92 93 87 69 68 62 48
100 85 79 78 74 68 65 60 57 57 56 58 60 64 65 66 74 77 80 82 83 86 91 92 91 93 93 93 96 100 101 101 100 103 108 109 107 103 103 96 91 87 81 79 81 62 52 38 22
108 94 92 77 75 72 68 64 57 54 54 54 56 59 65 66 72 74 75 79 80 79 81 86 88 90 92 90 90 88 90 94 96 98 102 100 94 93 94 92 88 82 76 71 65 52 37 25 7
167 135 107 78 77 74 67 60 53 47 47 51 53 55 60 62 68 71 72 77 82 80 77 79 84 88 92 89 86 83 80 86 92 94 95 98 99 98 93 87 80 77 70 60 48 38 27 13 359
188 177 160 113 82 68 61 52 44 42 40 42 45 46 50 53 57 63 69 75 80 80 79 79 83 85 86 87 84 82 80 84 91 92 93 96 99 94 87 79 73 71 68 58 44 33 25 17 8
200 197 199 210 207 44 56 42 36 36 39 35 35 38 42 44 46 53 66 71 76 79 79 80 84 86 85 85 81 77 75 83 86 90 92 89 94 95 86 76 68 66 63 55 43 34 30 22 14
208 209 212 220 245 261 72 15 18 25 30 29 28 29 33 35 38 48 59 69 70 73 80 83 83 82 83 81 79 76 78 79 87 95 86 78 82 89 82 72 65 54 47 42 32 27 19 16 13
218 223 224 226 241 257 244 277 323 348 1 9 16 18 23 27 29 35 52 64 67 73 78 85 79 77 78 80 78 73 72 75 79 81 69 65 75 80 84 74 62 48 42 35 26 19 12 7 3
225 227 232 236 239 238 246 217 276 276 312 343 356 360 4 10 11 13 14 28 43 61 74 72 70 73 70 68 69 68 67 67 69 58 60 60 65 77 85 71 55 39 33 28 22 13 4 2 359
227 231 235 243 246 245 243 234 248 260 274 302 330 338 340 349 354 351 345 331 324 322 53 55 58 70 66 61 60 61 59 59 52 41 60 60 54 57 63 59 41 34 23 18 14 11 5 1 356
226 228 239 249 252 252 248 245 241 252 269 288 307 322 323 325 329 330 326 323 306 290 286 291 259 211 16 356 355 17 23 59 50 33 39 30 32 24 26 24 20 17 12 9 5 4 4 0 355
226 227 230 237 244 253 257 252 251 255 267 281 293 309 311 307 308 315 317 319 312 292 277 269 262 265 277 288 296 289 259 270 307 324 345 1 354 350 350 349 353 352 356 357 357 355 353 351 350
227 230 231 237 243 249 256 255 252 255 263 271 281 287 290 289 288 291 297 305 299 291 283 272 272 265 269 273 278 282 269 278 289 297 286 296 306 315 323 325 331 335 341 342 340 340 339 342 342
229 231 233 234 242 248 254 255 255 257 263 265 269 270 276 283 282 278 282 288 283 277 278 279 282 280 278 277 276 283 286 286 282 277 266 275 286 305 315 317 320 324 328 330 332 334 334 337 336
231 233 236 236 239 242 249 252 254 258 262 261 259 262 267 273 276 271 267 275 272 266 267 273 283 285 286 288 281 282 286 284 280 279 272 275 284 296 308 311 316 317 319 321 324 324 326 328 328
233 235 238 239 242 244 245 250 253 256 257 257 256 259 262 265 269 270 269 271 269 266 263 265 274 279 283 283 278 279 282 279 279 286 287 279 279 282 290 299 306 309 311 315 317 319 319 317 317
Height
5884 5883 5882 5882 5883 5883 5882 5881 5879 5878 5877 5876 5875 5874 5873 5873 5873 5874 5872 5870 5870 5870 5869 5869 5870 5870 5872 5873 5874 5874 5875 5876 5877 5878 5879 5880 5881 5881 5882 5883 5884 5885 5886 5887 5887 5888 5889 5890 5890
5886 5885 5885 5885 5886 5886 5884 5882 5881 5880 5879 5877 5876 5875 5875 5873 5873 5872 5872 5871 5871 5871 5870 5870 5871 5871 5872 5873 5874 5875 5876 5877 5878 5879 5880 5881 5881 5882 5883 5884 5885 5886 5887 5887 5888 5889 5890 5890 5891
5888 5887 5888 5888 5887 5887 5886 5884 5882 5881 5880 5879 5878 5877 5876 5875 5874 5873 5873 5873 5872 5872 5872 5872 5872 5872 5873 5874 5875 5876 5877 5878 5879 5879 5881 5882 5882 5883 5884 5885 5885 5886 5887 5888 5889 5889 5890 5890 5891
5890 5890 5890 5891 5889 5888 5887 5885 5884 5883 5882 5880 5879 5878 5877 5876 5875 5875 5874 5874 5874 5873 5873 5873 5873 5873 5874 5875 5876 5877 5878 5879 5879 5880 5881 5882 5883 5884 5884 5885 5886 5887 5888 5889 5889 5890 5890 5891 5891
5893 5893 5894 5893 5891 5890 5888 5887 5886 5885 5883 5882 5881 5879 5878 5877 5877 5876 5876 5875 5875 5875 5874 5874 5874 5875 5875 5876 5877 5877 5878 5879 5880 5881 5882 5883 5884 5884 5885 5886 5886 5887 5888 5889 5890 5890 5890 5891 5891
5896 5896 5897 5895 5893 5892 5890 5889 5887 5886 5885 5884 5882 5881 5880 5879 5878 5878 5877 5876 5876 5876 5875 5875 5875 5876 5876 5876 5877 5878 5879 5880 5881 5882 5883 5884 5885 5885 5886 5887 5887 5888 5889 5889 5890 5890 5890 5891 5891
5899 5899 5898 5897 5895 5894 5893 5891 5889 5888 5887 5885 5884 5883 5881 5880 5880 5879 5878 5878 5877 5877 5877 5877 5877 5877 5877 5877 5878 5879 5880 5881 5882 5883 5884 5885 5885 5886 5887 5887 5888 5889 5889 5890 5890 5890 5890 5890 5890
5900 5901 5900 5899 5898 5896 5895 5893 5891 5890 5889 5887 5886 5885 5884 5883 5882 5881 5880 5879 5879 5879 5879 5879 5878 5878 5877 5877 5878 5880 5881 5882 5883 5884 5885 5886 5886 5887 5887 5888 5889 5889 5889 5890 5890 5890 5889 5889 5889
5903 5904 5903 5901 5900 5898 5896 5895 5893 5892 5890 5889 5888 5887 5886 5885 5883 5882 5882 5882 5881 5881 5881 5881 5880 5880 5879 5878 5879 5880 5882 5883 5884 5885 5886 5886 5887 5888 5888 5889 5889 5890 5890 5890 5890 5889 5888 5886 5886
5905 5906 5904 5903 5902 5900 5899 5897 5896 5894 5893 5892 5890 5889 5888 5887 5886 5885 5884 5884 5884 5883 5883 5883 5882 5882 5881 5880 5881 5882 5884 5884 5885 5886 5887 5887 5888 5889 5889 5890 5890 5891 5891 5891 5890 5889 5887 5886 5884
5907 5907 5906 5905 5904 5902 5901 5900 5898 5897 5896 5894 5893 5892 5890 5889 5888 5887 5887 5886 5886 5886 5886 5885 5885 5884 5884 5883 5884 5885 5886 5886 5887 5888 5888 5889 5889 5889 5890 5891 5891 5891 5891 5891 5890 5890 5889 5887 5886
5910 5909 5908 5907 5906 5905 5904 5902 5901 5900 5899 5897 5895 5894 5893 5892 5891 5890 5889 5889 5888 5888 5888 5888 5887 5887 5887 5887 5887 5887 5888 5888 5889 5889 5890 5890 5890 5891 5891 5892 5892 5892 5892 5891 5891 5890 5890 5889 5889
5912 5911 5910 5909 5908 5907 5906 5905 5903 5902 5901 5899 5898 5897 5895 5894 5893 5892 5892 5891 5891 5891 5890 5890 5890 5890 5890 5890 5890 5890 5890 5890 5891 5891 5891 5892 5892 5892 5892 5893 5892 5892 5892 5892 5892 5891 5891 5890 5890
5914 5913 5912 5912 5911 5910 5909 5907 5906 5905 5903 5902 5900 5899 5898 5897 5896 5895 5894 5894 5893 5893 5893 5893 5893 5892 5892 5892 5892 5892 5892 5892 5892 5892 5892 5893 5893 5893 5893 5893 5893 5893 5893 5893 5892 5892 5891 5891 5890
5915 5915 5915 5914 5913 5912 5912 5910 5909 5907 5906 5904 5903 5902 5901 5900 5899 5898 5897 5896 5896 5896 5895 5895 5895 5895 5895 5895 5894 5894 5894 5894 5894 5893 5893 5893 5894 5893 5894 5894 5894 5894 5893 5893 5892 5892 5892 5891 5891
5917 5917 5918 5916 5915 5914 5915 5914 5912 5910 5908 5907 5905 5904 5904 5903 5901 5900 5900 5899 5899 5898 5897 5897 5897 5897 5896 5896 5896 5896 5896 5896 5895 5895 5895 5895 5895 5895 5895 5895 5894 5894 5894 5893 5893 5892 5892 5892 5891
5918 5919 5919 5918 5917 5916 5916 5915 5914 5912 5911 5909 5908 5907 5906 5905 5904 5903 5902 5901 5901 5900 5900 5899 5899 5898 5898 5898 5898 5898 5897 5897 5897 5896 5896 5896 5896 5896 5896 5896 5895 5895 5894 5894 5893 5893 5892 5892 5891
5920 5920 5920 5919 5918 5918 5917 5917 5915 5914 5913 5912 5910 5909 5908 5907 5906 5905 5904 5904 5903 5902 5902 5901 5900 5900 5899 5899 5899 5899 5898 5898 5898 5898 5897 5897 5897 5897 5897 5897 5896 5896 5895 5895 5894 5893 5892 5892 5891
5919 5920 5920 5920 5919 5919 5918 5918 5917 5916 5915 5914 5912 5911 5910 5909 5908 5907 5906 5906 5905 5904 5903 5903 5902 5901 5901 5901 5900 5900 5900 5899 5899 5899 5898 5898 5898 5898 5897 5897 5897 5896 5896 5895 5894 5894 5893 5892 5891
5918 5919 5920 5920 5919 5919 5919 5919 5918 5917 5916 5915 5914 5913 5912 5911 5910 5909 5908 5907 5906 5906 5905 5904 5904 5903 5902 5902 5902 5901 5900 5900 5900 5899 5899 5899 5898 5898 5898 5898 5897 5897 5896 5896 5895 5894 5893 5892 5891
5916 5918 5919 5919 5919 5919 5920 5920 5919 5918 5917 5916 5915 5914 5913 5912 5911 5910 5909 5909 5908 5907 5906 5905 5905 5904 5904 5903 5903 5902 5902 5901 5901 5900 5900 5900 5899 5899 5898 5898 5898 5897 5896 5896 5895 5894 5893 5892 5891
5915 5916 5917 5918 5919 5920 5920 5922 5920 5919 5918 5917 5916 5915 5914 5913 5912 5912 5911 5910 5909 5908 5907 5907 5906 5906 5905 5904 5904 5904 5903 5902 5902 5901 5901 5900 5899 5899 5899 5899 5898 5898 5897 5896 5895 5894 5893 5893 5891
5913 5914 5916 5916 5918 5919 5919 5921 5922 5919 5918 5918 5917 5916 5915 5914 5913 5913 5912 5911 5910 5909 5909 5908 5907 5907 5906 5905 5905 5904 5904 5904 5903 5902 5902 5901 5900 5900 5899 5899 5899 5898 5898 5897 5896 5894 5893 5892 5891
5910 5913 5914 5915 5917 5918 5919 5919 5921 5919 5918 5918 5917 5916 5915 5914 5913 5913 5912 5911 5911 5910 5909 5909 5908 5907 5907 5906 5906 5905 5905 5904 5903 5903 5902 5901 5901 5900 5900 5900 5899 5898 5898 5897 5896 5894 5893 5892 5891
5908 5911 5913 5915 5916 5918 5917 5917 5919 5918 5917 5917 5916 5915 5914 5913 5913 5912 5911 5911 5910 5910 5909 5909 5908 5908 5907 5907 5906 5905 5905 5904 5904 5903 5902 5902 5901 5901 5900 5900 5899 5898 5898 5897 5895 5894 5893 5892 5891
5905 5908 5912 5914 5916 5916 5915 5915 5917 5916 5916 5915 5915 5914 5913 5913 5912 5911 5911 5910 5910 5909 5909 5909 5908 5908 5907 5907 5906 5905 5905 5904 5904 5903 5902 5902 5901 5901 5900 5900 5899 5898 5897 5896 5895 5894 5893 5891 5890
5901 5904 5907 5910 5911 5913 5913 5913 5914 5914 5914 5913 5913 5913 5912 5912 5911 5911 5910 5909 5909 5909 5908 5908 5908 5907 5907 5906 5906 5905 5904 5904 5903 5902 5902 5901 5901 5900 5900 5899 5898 5898 5897 5896 5895 5893 5892 5890 5889
5898 5900 5903 5906 5907 5910 5911 5911 5912 5912 5912 5911 5911 5911 5911 5910 5910 5909 5909 5908 5908 5908 5908 5907 5907 5906 5906 5905 5905 5904 5903 5903 5902 5901 5901 5901 5900 5900 5899 5898 5898 5897 5896 5895 5893 5892 5891 5889 5887
5893 5896 5898 5901 5903 5906 5908 5911 5908 5908 5909 5909 5909 5909 5909 5909 5908 5908 5907 5907 5907 5906 5906 5906 5906 5905 5905 5904 5904 5903 5903 5902 5901 5900 5900 5900 5899 5899 5898 5898 5897 5896 5894 5893 5892 5890 5889 5887 5886
5887 5890 5893 5896 5898 5900 5903 5908 5904 5905 5905 5906 5906 5906 5906 5906 5906 5906 5906 5905 5905 5905 5905 5905 5904 5904 5903 5903 5903 5902 5902 5901 5900 5899 5899 5898 5898 5897 5897 5896 5895 5894 5893 5892 5890 5889 5887 5886 5884